FW0878 Weather Reports


time (UTC)temp
C
wind
direction
speed
KPH
gust
KPH
rain 1hr
cm
rain 24hr
cm
rain mn
cm
humidity
%
barometer
mb
20260904030308 18 294 4.8 11.3 0.00 0.00 0.00 45 1016.6
20260904025307 17 19 3.2 9.7 0.00 0.00 0.00 46 1016.7
20260904024807 17 292 3.2 9.7 0.00 0.00 0.00 47 1017.0
20260904024307 17 86 3.2 11.3 0.00 0.00 0.00 48 1017.0
20260904023808 17 357 4.8 11.3 0.00 0.00 0.00 46 1017.1
20260904023307 17 312 3.2 16.1 0.00 0.00 0.00 46 1017.1
20260904022806 17 359 4.8 11.3 0.00 0.00 0.00 47 1017.1
20260904022306 16 338 4.8 12.9 0.00 0.00 0.00 48 1017.2
20260904021807 16 337 3.2 11.3 0.00 0.00 0.00 48 1017.5
20260904021306 17 250 3.2 11.3 0.00 0.00 0.00 47 1017.5
20260904020307 17 314 4.8 11.3 0.00 0.00 0.00 45 1017.7
20260904015307 17 252 1.6 8.0 0.00 0.00 0.00 45 1018.1
20260904014806 17 246 3.2 9.7 0.00 0.00 0.00 44 1018.1
20260904014307 17 269 1.6 16.1 0.00 0.00 0.00 44 1018.4
20260904013806 17 314 3.2 11.3 0.00 0.03 0.00 44 1018.3
20260904012806 16 290 3.2 14.5 0.00 0.08 0.00 45 1018.3
20260904012306 16 267 4.8 9.7 0.00 0.08 0.00 44 1018.4
20260904011807 16 246 3.2 9.7 0.00 0.08 0.00 44 1018.3
20260904011307 16 340 4.8 9.7 0.00 0.08 0.00 44 1018.3
20260904010308 16 277 3.2 11.3 0.00 0.08 0.00 47 1018.3
20260904005307 16 275 3.2 8.0 0.00 0.08 0.00 47 1018.7
20260904004806 15 47 3.2 11.3 0.00 0.08 0.00 47 1019.0
20260904004307 16 315 3.2 9.7 0.00 0.08 0.00 47 1019.2
20260904003808 15 268 1.6 12.9 0.00 0.08 0.00 48 1019.1
20260904003306 16 289 1.6 8.0 0.00 0.08 0.00 47 1019.3
20260904002806 16 315 3.2 9.7 0.00 0.08 0.00 46 1019.5
20260904002307 16 359 4.8 12.9 0.00 0.08 0.00 47 1019.4
20260904001806 16 250 4.8 11.3 0.00 0.08 0.00 48 1019.6
20260904001308 15 339 3.2 11.3 0.00 0.08 0.00 49 1019.4
20260904000806 15 90 4.8 12.9 0.00 0.08 0.00 49 1019.5
20260904000307 15 335 4.8 12.9 0.00 0.08 0.00 50 1019.6
20260903235808 15 358 6.4 14.5 0.00 0.08 0.00 50 1019.7
20260903235307 15 338 4.8 11.3 0.00 0.08 0.00 50 1019.7
20260903234807 15 21 3.2 9.7 0.00 0.08 0.00 51 1019.6
20260903234307 15 339 4.8 9.7 0.00 0.08 0.00 51 1019.5
20260903233806 15 335 3.2 9.7 0.00 0.08 0.00 51 1019.6
20260903233308 15 316 3.2 11.3 0.00 0.08 0.00 53 1019.8
20260903232807 14 235 3.2 11.3 0.00 0.08 0.00 55 1019.5
20260903231807 13 250 3.2 9.7 0.00 0.08 0.00 57 1020.1
20260903231307 14 22 1.6 8.0 0.00 0.08 0.00 58 1020.3
20260903230307 13 359 3.2 9.7 0.00 0.08 0.00 59 1020.0
20260903225806 13 336 3.2 9.7 0.00 0.08 0.08 59 1020.2
20260903225307 13 155 1.6 8.0 0.00 0.08 0.08 61 1020.0
20260903224806 12 114 3.2 4.8 0.00 0.08 0.08 63 1020.2
20260903223806 12 299 1.6 8.0 0.00 0.08 0.08 65 1020.0
20260903223306 12 326 3.2 8.0 0.00 0.08 0.08 65 1020.3
20260903222806 11 293 1.6 4.8 0.00 0.08 0.08 66 1020.3
20260903222307 11 316 1.6 3.2 0.00 0.08 0.08 67 1020.2
20260903221807 10 291 1.6 4.8 0.00 0.08 0.08 68 1020.2
20260903220806 10 316 1.6 8.0 0.00 0.08 0.08 70 1020.0
20260903220308 9 337 1.6 3.2 0.00 0.08 0.08 72 1019.7
20260903215807 8 342 1.6 3.2 0.00 0.08 0.08 72 1019.7
20260903215306 8 324 3.2 8.0 0.00 0.08 0.08 73 1019.8
20260903214806 8 204 1.6 4.8 0.00 0.08 0.08 74 1019.8
20260903214307 7 299 1.6 4.8 0.00 0.08 0.08 75 1019.4
20260903213307 6 312 1.6 4.8 0.00 0.08 0.08 79 1019.4
20260903212808 6 320 1.6 4.8 0.00 0.08 0.08 80 1019.3
20260903212307 6 250 1.6 3.2 0.00 0.08 0.08 80 1019.3
20260903211806 6 45 1.6 4.8 0.00 0.08 0.08 81 1019.1
20260903211306 6 316 1.6 3.2 0.00 0.08 0.08 81 1019.2
20260903210806 6 270 1.6 3.2 0.00 0.08 0.08 82 1019.2
20260903210306 6 0 1.6 3.2 0.00 0.08 0.08 82 1019.2
20260903205807 6 315 1.6 3.2 0.00 0.08 0.08 82 1019.0
20260903205307 6 66 1.6 1.6 0.00 0.08 0.08 81 1018.9
20260903204307 6 338 1.6 3.2 0.00 0.08 0.08 81 1018.8
20260903203807 6 316 1.6 3.2 0.00 0.08 0.08 81 1019.0
20260903203307 6 338 1.6 3.2 0.00 0.08 0.08 81 1018.9
20260903202306 6 338 1.6 1.6 0.00 0.08 0.08 80 1019.0
20260903201806 6 338 1.6 1.6 0.00 0.08 0.08 80 1019.0
20260903201307 6 295 1.6 1.6 0.00 0.08 0.08 80 1018.9
20260903200306 6 337 1.6 1.6 0.00 0.08 0.08 81 1018.9
20260903195806 6 359 1.6 3.2 0.00 0.08 0.08 81 1019.0
20260903195307 6 359 1.6 3.2 0.00 0.08 0.08 81 1018.8
20260903194808 6 359 0.0 1.6 0.00 0.08 0.08 81 1018.8
20260903194307 6 316 0.0 1.6 0.00 0.08 0.08 81 1018.7
20260903193807 6 315 0.0 1.6 0.00 0.08 0.08 81 1018.9
20260903193307 6 315 0.0 0.0 0.00 0.08 0.08 81 1018.7
20260903192806 6 316 0.0 1.6 0.00 0.08 0.08 82 1018.9
20260903192308 6 292 1.6 3.2 0.00 0.08 0.08 82 1018.7
20260903191308 6 359 0.0 3.2 0.00 0.08 0.08 83 1018.7
20260903185807 6 359 0.0 3.2 0.00 0.08 0.08 83 1018.8
20260903185306 6 292 0.0 1.6 0.00 0.08 0.08 83 1018.8
20260903183806 6 291 1.6 3.2 0.00 0.08 0.08 84 1018.5
20260903183307 5 270 0.0 3.2 0.00 0.08 0.08 84 1018.6
20260903182806 5 357 0.0 3.2 0.00 0.08 0.08 84 1018.7
20260903182307 5 339 0.0 1.6 0.00 0.08 0.08 84 1018.6
20260903181306 6 338 0.0 0.0 0.00 0.08 0.08 84 1018.6
20260903180307 6 338 1.6 1.6 0.00 0.08 0.08 85 1018.6
20260903175808 5 339 0.0 1.6 0.00 0.08 0.08 86 1018.7
20260903175307 5 338 0.0 1.6 0.00 0.08 0.08 86 1018.7
20260903174808 5 294 0.0 1.6 0.00 0.08 0.08 86 1018.6
20260903174307 5 291 0.0 1.6 0.00 0.08 0.08 86 1018.7
20260903173807 5 338 0.0 1.6 0.00 0.08 0.08 86 1018.7
20260903172307 5 315 0.0 1.6 0.00 0.08 0.08 86 1018.6
20260903171307 5 316 0.0 1.6 0.00 0.08 0.08 86 1019.0
20260903170307 5 292 0.0 1.6 0.00 0.08 0.08 86 1019.0
20260903165807 5 314 0.0 1.6 0.00 0.08 0.08 85 1019.0
20260903165306 5 295 0.0 1.6 0.00 0.08 0.08 85 1019.1
20260903164807 5 338 0.0 0.0 0.00 0.08 0.08 85 1019.0
20260903163806 5 338 0.0 0.0 0.00 0.08 0.08 84 1019.1
20260903163307 6 338 0.0 1.6 0.00 0.08 0.08 84 1019.2
20260903162806 6 339 0.0 1.6 0.00 0.08 0.08 84 1019.3
20260903162308 6 0 1.6 1.6 0.00 0.08 0.08 84 1019.3
20260903161306 6 338 1.6 3.2 0.00 0.08 0.08 84 1019.4
20260903160806 6 338 1.6 1.6 0.00 0.08 0.08 84 1019.5
20260903160306 6 21 1.6 1.6 0.00 0.08 0.08 84 1019.6
20260903155807 6 338 0.0 1.6 0.00 0.08 0.08 84 1019.5
20260903155306 6 338 0.0 0.0 0.00 0.08 0.08 83 1019.6
20260903154807 6 338 0.0 1.6 0.00 0.08 0.08 83 1019.6
20260903154307 6 0 0.0 0.0 0.00 0.08 0.08 83 1019.3
20260903153806 6 0 0.0 1.6 0.00 0.08 0.08 83 1019.5
20260903153306 6 0 0.0 1.6 0.00 0.08 0.08 83 1019.6
20260903152807 6 0 0.0 0.0 0.00 0.08 0.08 82 1019.3
20260903152307 6 0 0.0 1.6 0.00 0.08 0.08 82 1019.4
20260903151806 7 0 0.0 1.6 0.00 0.08 0.08 82 1019.4
20260903150807 7 2 0.0 1.6 0.00 0.08 0.08 82 1019.5
20260903150306 7 45 0.0 1.6 0.00 0.08 0.08 82 1019.5
20260903145807 7 68 0.0 0.0 0.00 0.08 0.08 82 1019.6
20260903145308 7 45 0.0 1.6 0.00 0.08 0.08 82 1019.6
20260903144806 7 0 0.0 1.6 0.00 0.08 0.08 82 1019.7
20260903144308 7 1 0.0 1.6 0.00 0.08 0.08 82 1019.7
20260903143806 7 20 0.0 3.2 0.00 0.08 0.08 82 1019.5
20260903142808 7 22 1.6 3.2 0.00 0.08 0.08 82 1019.5
20260903142306 7 338 0.0 1.6 0.00 0.08 0.08 82 1019.5
20260903141807 7 338 0.0 1.6 0.00 0.08 0.08 82 1019.7
20260903141307 8 340 1.6 3.2 0.00 0.08 0.08 81 1019.6
20260903140807 8 0 1.6 3.2 0.00 0.08 0.08 81 1019.5
20260903140307 8 0 1.6 1.6 0.00 0.08 0.08 81 1019.6
20260903135806 8 359 1.6 1.6 0.00 0.08 0.08 81 1019.6
20260903135307 8 0 1.6 1.6 0.00 0.08 0.08 81 1019.5
20260903134807 8 338 0.0 1.6 0.00 0.08 0.08 81 1019.8
20260903134306 8 338 0.0 1.6 0.00 0.08 0.08 81 1019.6
20260903133807 8 0 0.0 0.0 0.00 0.08 0.08 81 1019.8
20260903133307 8 338 0.0 1.6 0.00 0.08 0.08 81 1019.7
20260903132807 9 0 0.0 1.6 0.00 0.08 0.08 81 1019.6
20260903132308 9 338 0.0 1.6 0.00 0.08 0.08 81 1019.7
20260903131806 9 317 0.0 1.6 0.00 0.08 0.08 81 1019.7
20260903130807 9 338 1.6 3.2 0.00 0.08 0.08 81 1019.9
20260903130307 9 293 1.6 3.2 0.00 0.08 0.08 82 1019.8
20260903125807 9 292 1.6 1.6 0.00 0.08 0.08 82 1019.7
20260903125307 8 315 1.6 1.6 0.00 0.08 0.08 82 1019.9
20260903124806 8 316 1.6 1.6 0.00 0.08 0.08 83 1019.7
20260903123306 8 315 0.0 1.6 0.00 0.08 0.08 84 1019.9
20260903122807 8 271 0.0 1.6 0.00 0.08 0.08 83 1019.9
20260903122307 8 271 0.0 1.6 0.00 0.08 0.08 83 1019.7
20260903121807 8 291 0.0 0.0 0.00 0.08 0.08 82 1019.7
20260903121306 8 270 0.0 0.0 0.00 0.08 0.08 81 1019.7
20260903120807 8 271 0.0 0.0 0.00 0.08 0.08 81 1019.7
20260903120307 8 271 0.0 1.6 0.00 0.08 0.08 80 1019.7
20260903115806 8 271 0.0 1.6 0.00 0.08 0.08 80 1019.6
20260903115306 9 336 0.0 0.0 0.00 0.08 0.08 79 1019.6
20260903114806 9 315 0.0 0.0 0.00 0.08 0.08 78 1019.4
20260903114306 9 315 0.0 1.6 0.00 0.08 0.08 78 1019.5
20260903113807 10 271 0.0 1.6 0.00 0.08 0.08 76 1019.3
20260903113307 10 247 0.0 0.0 0.00 0.08 0.08 76 1019.3
20260903112806 10 294 0.0 1.6 0.00 0.08 0.08 75 1019.3
20260903112306 10 339 0.0 1.6 0.00 0.08 0.08 75 1019.4
20260903111806 10 339 1.6 1.6 0.00 0.08 0.08 75 1019.1
20260903110806 10 269 1.6 3.2 0.00 0.08 0.08 75 1019.1
20260903110306 10 270 1.6 3.2 0.00 0.08 0.08 75 1019.0
20260903105806 11 269 1.6 1.6 0.00 0.08 0.08 75 1018.9
20260903105307 11 269 1.6 3.2 0.00 0.08 0.08 74 1019.0
20260903104306 11 225 1.6 3.2 0.00 0.08 0.08 73 1018.9
20260903103808 11 202 0.0 0.0 0.00 0.08 0.08 72 1018.8
20260903102806 11 248 0.0 0.0 0.00 0.08 0.08 71 1018.5
20260903101306 12 226 3.2 4.8 0.00 0.08 0.08 70 1018.6
20260903100807 12 204 3.2 11.3 0.00 0.08 0.08 69 1018.5
20260903100307 12 248 3.2 11.3 0.00 0.08 0.08 69 1018.5
20260903095807 12 242 3.2 8.0 0.00 0.08 0.08 69 1018.1
20260903095307 12 181 3.2 8.0 0.00 0.08 0.08 69 1018.4
20260903094807 12 270 3.2 9.7 0.00 0.08 0.08 68 1018.3
20260903094306 12 291 3.2 8.0 0.00 0.08 0.08 68 1018.1
20260903093807 12 248 1.6 4.8 0.00 0.08 0.08 68 1018.1
20260903092806 13 290 1.6 3.2 0.00 0.08 0.08 67 1017.7
20260903092307 13 248 1.6 3.2 0.00 0.08 0.08 67 1017.7
20260903091806 13 226 1.6 3.2 0.00 0.08 0.08 66 1017.8
20260903091306 13 249 1.6 3.2 0.00 0.08 0.08 66 1017.7
20260903090806 13 223 1.6 4.8 0.00 0.08 0.08 65 1017.5
20260903090306 13 270 1.6 4.8 0.00 0.08 0.08 64 1017.5
20260903085807 13 250 3.2 8.0 0.00 0.08 0.08 64 1017.4
20260903085307 13 247 4.8 9.7 0.00 0.08 0.08 63 1017.3
20260903084808 14 249 4.8 9.7 0.00 0.08 0.08 63 1016.9
20260903083807 14 225 3.2 14.5 0.00 0.08 0.08 63 1016.9
20260903083307 14 265 3.2 9.7 0.00 0.08 0.08 63 1016.9
20260903082806 14 248 3.2 8.0 0.00 0.08 0.08 62 1016.9
20260903082306 14 225 3.2 11.3 0.00 0.08 0.08 62 1016.8
20260903081307 14 247 4.8 9.7 0.00 0.08 0.08 62 1016.7
20260903080307 14 225 1.6 11.3 0.00 0.08 0.08 62 1016.3
20260903075806 14 183 4.8 9.7 0.00 0.08 0.08 62 1016.3
20260903075307 14 202 1.6 4.8 0.00 0.08 0.08 62 1016.2
20260903074807 15 248 1.6 11.3 0.00 0.08 0.08 61 1016.1
20260903074309 15 226 4.8 11.3 0.00 0.08 0.08 60 1016.1
20260903073806 15 204 4.8 12.9 0.00 0.08 0.08 60 1016.1
20260903073307 15 181 4.8 12.9 0.00 0.08 0.08 60 1015.9
20260903072807 15 266 3.2 11.3 0.00 0.08 0.08 60 1015.8
20260903072307 15 244 6.4 12.9 0.00 0.08 0.08 60 1015.7
20260903071306 15 249 6.4 14.5 0.00 0.08 0.08 59 1015.5
20260903070806 15 269 6.4 19.3 0.00 0.08 0.08 59 1015.7
20260903070306 15 161 6.4 19.3 0.00 0.08 0.08 58 1015.8
20260903065806 15 271 6.4 16.1 0.00 0.08 0.08 58 1015.6
20260903065307 16 247 4.8 16.1 0.00 0.08 0.08 58 1015.4
20260903064806 16 222 4.8 11.3 0.00 0.08 0.08 57 1015.3
20260903064308 16 226 4.8 12.9 0.00 0.08 0.08 56 1015.1
20260903063307 16 226 6.4 12.9 0.00 0.08 0.08 56 1014.9
20260903062806 16 205 8.0 12.9 0.00 0.08 0.08 56 1015.0
20260903062307 16 267 6.4 12.9 0.00 0.08 0.08 56 1014.7
20260903061807 16 267 6.4 12.9 0.00 0.08 0.08 56 1014.8
20260903061308 16 265 4.8 16.1 0.00 0.08 0.08 56 1014.7
20260903060807 16 202 9.7 16.1 0.00 0.08 0.08 55 1014.6
20260903060306 17 312 4.8 12.9 0.00 0.08 0.08 54 1014.5
20260903055807 17 269 8.0 14.5 0.00 0.08 0.08 53 1014.6
20260903055306 17 226 4.8 16.1 0.00 0.08 0.08 52 1014.3
20260903054807 18 269 6.4 20.9 0.00 0.08 0.08 50 1014.4
20260903054308 18 225 8.0 20.9 0.00 0.08 0.08 46 1014.5
20260903053807 18 162 8.0 20.9 0.00 0.08 0.08 46 1014.4
20260903052807 18 291 8.0 14.5 0.00 0.08 0.08 49 1014.2
20260903051806 17 246 8.0 19.3 0.00 0.08 0.08 48 1014.1
20260903051306 17 339 4.8 14.5 0.00 0.08 0.08 50 1014.0
20260903050806 17 205 9.7 19.3 0.00 0.08 0.08 52 1014.0
20260903050306 18 226 6.4 12.9 0.00 0.08 0.08 50 1014.0
20260903045806 18 270 1.6 16.1 0.00 0.08 0.08 52 1013.8
20260903045306 18 185 3.2 11.3 0.00 0.08 0.08 52 1013.9
20260903044806 17 246 3.2 12.9 0.00 0.08 0.08 52 1013.7
20260903044308 17 247 6.4 12.9 0.00 0.08 0.08 52 1014.0
20260903043807 17 247 6.4 19.3 0.00 0.08 0.08 53 1013.8
20260903043306 17 268 6.4 16.1 0.00 0.08 0.08 53 1013.9
20260903042808 17 45 4.8 11.3 0.00 0.08 0.08 54 1013.8
20260903042307 17 204 4.8 20.9 0.00 0.08 0.08 55 1013.6
20260903041807 17 289 9.7 20.9 0.00 0.08 0.08 56 1013.7
20260903041306 17 226 9.7 19.3 0.00 0.08 0.08 56 1013.6
20260903040807 17 270 8.0 22.5 0.00 0.08 0.08 54 1013.4
20260903040307 17 249 8.0 22.5 0.00 0.08 0.08 54 1013.3
20260903035806 17 229 9.7 25.7 0.00 0.08 0.08 54 1013.3
20260903035306 17 270 9.7 25.7 0.00 0.08 0.08 53 1013.3
20260903034806 17 114 11.3 24.1 0.00 0.08 0.08 54 1013.3
20260903034307 16 204 11.3 24.1 0.00 0.08 0.08 54 1013.3
20260903033306 15 290 9.7 19.3 0.00 0.08 0.08 58 1013.5
20260903032807 15 244 8.0 25.7 0.00 0.08 0.08 60 1013.5
20260903032307 15 290 14.5 25.7 0.00 0.08 0.08 61 1013.4
20260903031807 16 205 9.7 24.1 0.00 0.08 0.08 64 1013.5
20260903031307 17 203 8.0 16.1 0.00 0.08 0.08 61 1013.2